CFG5KA EDDF-GCLP

Flight info

Callsign CFG5KA
Flight time N/A
Altitude 33000
Route SOBRA7D SOBRA Y180 DIK UN857 TOLVU DCT RAPOR DCT GIMER DCT AHVEC UN857 DISAK DCT ARKIP DCT ARNAV DCT LMG DCT UVELI DCT OSMOB DCT VAVIX/N0398F210 DCT BTZ DCT URUNA/N0455F330 DCT SSN DCT VRA DCT NEA L14 ADINO/N0457F350 DCT ELVAR DCT BAROK UN873 SAMAR
Aircraft A321/M-SDE3FGHIRWY/LB1

Departure

Time 2026-05-01 13:52
Airport Frankfurt Main Airport (EDDF)

Arrival

Time N/A
Airport Gran Canaria Airport (GCLP)
Time Latitude Longitude Altitude Speed Heading
2026-05-01 12:44 50.04066 8.55617 351 ft 0 kts 159°
2026-05-01 13:36 50.04063 8.55618 351 ft 0 kts 159°
2026-05-01 13:43 50.04044 8.55629 351 ft 7 kts 159°
2026-05-01 13:43 50.03995 8.55653 350 ft 7 kts 180°
2026-05-01 13:44 50.03963 8.55593 349 ft 9 kts 249°
2026-05-01 13:44 50.03944 8.55511 349 ft 7 kts 249°
2026-05-01 13:44 50.03929 8.55450 349 ft 5 kts 249°
2026-05-01 13:44 50.03917 8.55401 349 ft 4 kts 249°
2026-05-01 13:45 50.03904 8.55346 349 ft 8 kts 250°
2026-05-01 13:45 50.03875 8.55223 349 ft 14 kts 250°
2026-05-01 13:45 50.03843 8.55089 348 ft 13 kts 250°
2026-05-01 13:45 50.03813 8.54962 348 ft 12 kts 249°
2026-05-01 13:46 50.03784 8.54843 347 ft 12 kts 250°
2026-05-01 13:46 50.03757 8.54729 346 ft 11 kts 249°
2026-05-01 13:46 50.03730 8.54613 345 ft 12 kts 250°
2026-05-01 13:46 50.03697 8.54474 343 ft 15 kts 250°
2026-05-01 13:47 50.03659 8.54320 342 ft 15 kts 250°
2026-05-01 13:47 50.03625 8.54175 342 ft 14 kts 249°
2026-05-01 13:47 50.03593 8.54041 341 ft 13 kts 249°
2026-05-01 13:47 50.03561 8.53909 341 ft 13 kts 250°
2026-05-01 13:48 50.03530 8.53777 340 ft 13 kts 250°
2026-05-01 13:48 50.03500 8.53652 339 ft 12 kts 250°
2026-05-01 13:48 50.03472 8.53535 338 ft 11 kts 248°
2026-05-01 13:48 50.03446 8.53429 338 ft 10 kts 249°
2026-05-01 13:49 50.03422 8.53332 338 ft 10 kts 249°
2026-05-01 13:49 50.03395 8.53217 337 ft 12 kts 250°
2026-05-01 13:49 50.03367 8.53099 336 ft 11 kts 249°
2026-05-01 13:49 50.03341 8.52988 336 ft 11 kts 249°
2026-05-01 13:50 50.03313 8.52875 335 ft 14 kts 249°
2026-05-01 13:50 50.03280 8.52740 334 ft 13 kts 249°
2026-05-01 13:50 50.03252 8.52621 335 ft 10 kts 233°
2026-05-01 13:50 50.03182 8.52594 335 ft 15 kts 180°
2026-05-01 13:51 50.02859 8.52599 335 ft 80 kts 179°
2026-05-01 13:51 50.02106 8.52606 335 ft 134 kts 179°
2026-05-01 13:51 50.01021 8.52614 334 ft 176 kts 180°
2026-05-01 13:51 49.99749 8.52629 739 ft 182 kts 178°
2026-05-01 13:52 49.98483 8.52712 1340 ft 186 kts 178°
2026-05-01 13:52 49.97129 8.52824 1478 ft 206 kts 178°
2026-05-01 13:52 49.95634 8.52941 1682 ft 222 kts 178°
2026-05-01 13:52 49.94049 8.53061 2111 ft 231 kts 178°
2026-05-01 13:53 49.92449 8.53182 2807 ft 230 kts 178°
2026-05-01 13:53 49.89208 8.53421 4068 ft 235 kts 178°
2026-05-01 13:53 49.87559 8.53464 4651 ft 238 kts 188°
2026-05-01 13:54 49.85953 8.52754 5248 ft 238 kts 200°
2026-05-01 13:54 49.84405 8.51889 5810 ft 240 kts 200°
2026-05-01 13:54 49.82786 8.50977 6111 ft 256 kts 200°
2026-05-01 13:54 49.81057 8.49981 6378 ft 272 kts 201°
2026-05-01 13:55 49.79246 8.48934 6809 ft 281 kts 200°
2026-05-01 13:55 49.77424 8.47791 7333 ft 286 kts 211°
2026-05-01 13:55 49.76062 8.45604 7856 ft 287 kts 244°
2026-05-01 13:55 49.75652 8.42614 8422 ft 287 kts 275°
2026-05-01 13:56 49.75967 8.39550 8928 ft 291 kts 282°
2026-05-01 13:56 49.76466 8.36495 9417 ft 294 kts 285°
2026-05-01 13:56 49.77042 8.33403 9907 ft 297 kts 286°
2026-05-01 13:56 49.77617 8.30341 10227 ft 306 kts 285°
2026-05-01 13:57 49.78211 8.27056 10355 ft 321 kts 285°
2026-05-01 13:57 49.78601 8.24812 10440 ft 330 kts 284°
2026-05-01 13:57 49.79389 8.20088 10611 ft 348 kts 284°
2026-05-01 13:57 49.79984 8.16387 10739 ft 360 kts 283°
2026-05-01 13:58 49.80584 8.12603 10865 ft 372 kts 283°
2026-05-01 13:58 49.81207 8.08620 11075 ft 380 kts 283°
2026-05-01 13:58 49.81824 8.04671 11429 ft 383 kts 283°
2026-05-01 13:58 49.82456 8.00645 11810 ft 386 kts 283°
2026-05-01 13:59 49.83104 7.96551 12185 ft 388 kts 283°
2026-05-01 13:59 49.83751 7.92476 12540 ft 391 kts 283°
2026-05-01 13:59 49.84400 7.88375 12878 ft 393 kts 283°
2026-05-01 13:59 49.85048 7.84249 13208 ft 395 kts 283°
2026-05-01 14:00 49.85694 7.80098 13538 ft 397 kts 283°
2026-05-01 14:00 49.86341 7.75924 13851 ft 399 kts 283°
2026-05-01 14:00 49.86998 7.71733 14147 ft 401 kts 283°
2026-05-01 14:00 49.87653 7.67568 14418 ft 403 kts 283°
2026-05-01 14:01 49.88317 7.63333 14689 ft 405 kts 283°
2026-05-01 14:01 49.88978 7.59074 14953 ft 407 kts 283°
2026-05-01 14:01 49.89634 7.54805 15203 ft 409 kts 283°
2026-05-01 14:01 49.90294 7.50497 15443 ft 410 kts 283°
2026-05-01 14:02 49.90951 7.46180 15677 ft 412 kts 283°
2026-05-01 14:02 49.91610 7.41839 15893 ft 414 kts 283°
2026-05-01 14:02 49.92270 7.37485 16101 ft 415 kts 283°
2026-05-01 14:02 49.92931 7.33119 16303 ft 417 kts 283°
2026-05-01 14:03 49.93596 7.28734 16492 ft 418 kts 283°
2026-05-01 14:03 49.94263 7.24331 16682 ft 419 kts 283°
2026-05-01 14:03 49.94931 7.19916 16864 ft 421 kts 283°
2026-05-01 14:03 49.95602 7.15487 17040 ft 422 kts 283°
2026-05-01 14:04 49.96271 7.11048 17209 ft 423 kts 283°
2026-05-01 14:04 49.96936 7.06591 17373 ft 424 kts 283°
2026-05-01 14:04 49.97600 7.02118 17529 ft 426 kts 282°
2026-05-01 14:04 49.98049 6.99085 17632 ft 426 kts 282°
2026-05-01 14:05 49.98919 6.93130 17825 ft 428 kts 281°
2026-05-01 14:05 49.99244 6.88539 17960 ft 428 kts 270°
2026-05-01 14:05 49.99142 6.83910 18098 ft 429 kts 267°
2026-05-01 14:05 49.98997 6.79272 18233 ft 430 kts 267°
2026-05-01 14:06 49.98856 6.74624 18367 ft 431 kts 267°
2026-05-01 14:06 49.98717 6.69953 18497 ft 432 kts 267°
2026-05-01 14:06 49.98577 6.65295 18623 ft 433 kts 267°
2026-05-01 14:06 49.98431 6.60607 18748 ft 434 kts 266°
2026-05-01 14:07 49.97985 6.55980 18868 ft 434 kts 256°
2026-05-01 14:07 49.97013 6.51540 18994 ft 434 kts 246°
2026-05-01 14:07 49.95804 6.47248 19122 ft 434 kts 246°
2026-05-01 14:08 49.93796 6.40104 19329 ft 434 kts 246°
2026-05-01 14:08 49.92584 6.35798 19454 ft 435 kts 246°
2026-05-01 14:08 49.91373 6.31501 19579 ft 435 kts 246°
2026-05-01 14:08 49.90162 6.27205 19703 ft 435 kts 246°
2026-05-01 14:09 49.88926 6.22929 19828 ft 434 kts 245°
2026-05-01 14:09 49.87695 6.18650 19953 ft 434 kts 246°
2026-05-01 14:09 49.86461 6.14377 20075 ft 434 kts 243°
2026-05-01 14:09 49.84917 6.10363 20200 ft 434 kts 235°
2026-05-01 14:10 49.83182 6.06544 20325 ft 433 kts 234°
2026-05-01 14:10 49.81441 6.02736 20450 ft 433 kts 234°
2026-05-01 14:10 49.79690 5.98928 20575 ft 433 kts 234°
2026-05-01 14:10 49.77941 5.95141 20700 ft 432 kts 234°
2026-05-01 14:11 49.76188 5.91352 20824 ft 432 kts 234°
2026-05-01 14:11 49.73297 5.83243 21073 ft 431 kts 250°
2026-05-01 14:11 49.72303 5.78880 21199 ft 430 kts 250°
2026-05-01 14:12 49.71300 5.74530 21323 ft 429 kts 250°
2026-05-01 14:12 49.70289 5.70191 21448 ft 429 kts 250°
2026-05-01 14:12 49.69272 5.65862 21572 ft 428 kts 250°
2026-05-01 14:12 49.68256 5.61541 21697 ft 428 kts 250°
2026-05-01 14:13 49.67243 5.57226 21821 ft 427 kts 250°
2026-05-01 14:13 49.66232 5.52919 21946 ft 426 kts 250°
2026-05-01 14:13 49.65222 5.48620 22071 ft 426 kts 250°
2026-05-01 14:13 49.64212 5.44330 22196 ft 425 kts 250°
2026-05-01 14:14 49.63204 5.40050 22321 ft 424 kts 250°
2026-05-01 14:14 49.62213 5.35825 22445 ft 423 kts 250°
2026-05-01 14:14 49.61241 5.31480 22571 ft 422 kts 251°
2026-05-01 14:14 49.60321 5.27182 22696 ft 422 kts 252°
2026-05-01 14:15 49.59433 5.22932 22820 ft 421 kts 252°
2026-05-01 14:15 49.58556 5.18580 22946 ft 420 kts 253°
2026-05-01 14:15 49.57776 5.14303 23069 ft 419 kts 255°
2026-05-01 14:15 49.57037 5.09967 23194 ft 418 kts 255°
2026-05-01 14:16 49.56306 5.05585 23320 ft 417 kts 255°
2026-05-01 14:16 49.55586 5.01317 23444 ft 416 kts 255°
2026-05-01 14:16 49.54844 4.97017 23569 ft 415 kts 255°
2026-05-01 14:16 49.54089 4.92735 23693 ft 414 kts 254°
2026-05-01 14:17 49.53323 4.88470 23818 ft 413 kts 254°
2026-05-01 14:17 49.52554 4.84221 23943 ft 412 kts 254°
2026-05-01 14:17 49.51783 4.79985 24067 ft 410 kts 254°
2026-05-01 14:17 49.51002 4.75703 24194 ft 409 kts 254°
2026-05-01 14:18 49.50235 4.71493 24319 ft 408 kts 254°
2026-05-01 14:18 49.49472 4.67293 24443 ft 407 kts 254°
2026-05-01 14:18 49.48721 4.63162 24566 ft 406 kts 254°
2026-05-01 14:18 49.48207 4.60337 24651 ft 405 kts 254°
2026-05-01 14:19 49.47199 4.54766 24818 ft 404 kts 254°
2026-05-01 14:19 49.46452 4.50665 24941 ft 402 kts 254°
2026-05-01 14:19 49.45694 4.46521 25066 ft 401 kts 254°
2026-05-01 14:19 49.44941 4.42405 25190 ft 400 kts 254°
2026-05-01 14:20 49.44183 4.38290 25315 ft 399 kts 254°
2026-05-01 14:20 49.42668 4.30125 25565 ft 396 kts 254°
2026-05-01 14:20 49.41914 4.26060 25690 ft 395 kts 254°